[[{"header":{"parameterUnit":"m.s-1","parameterCategory":1,"la1":30.2991,"la2":30.254,"lo1":-89.0895,"lo2":-89.0444,"dy":0.0017,"dx":0.0017,"nx":28,"ny":28,"refTime":"2026-03-03T09:00:00:Z","depth":0,"parameterNumber":2,"parameterNumberName":"U-component_of_WINDS"},"data":[0,0,0,0,0,0,0,0,0,0,0,0,0,0,0,0,0,0,0,0,0,0,0,0,0,0,0,0,0,0,0,0,0,0,0,0,0,0,0,0,0,0,0,0,0,0,0,0,0,0,0,0,0,0,0,0,0,0,-3.597,-3.5975,0,-3.6498,-3.6504,-3.651,-3.6705,-3.6703,-3.6701,-3.6699,-3.7243,-3.7258,-3.7274,0,0,0,0,0,0,0,0,0,0,0,0,0,-3.5136,-3.5151,-3.5969,-3.5976,-3.5982,-3.6497,-3.6504,-3.6511,-3.6705,-3.6703,-3.6701,-3.6699,-3.7237,-3.7256,-3.7276,0,0,0,0,0,0,0,0,0,0,0,0,0,-3.5564,-3.5155,-3.5968,-3.6141,-3.6162,-3.6495,-3.6504,-3.6513,-3.6705,-3.6703,-3.67,-3.6698,-3.7231,-3.7255,-3.7278,-3.7479,0,0,-3.7352,-3.7362,0,0,0,0,0,0,0,0,-3.554,-3.5595,-3.6109,-3.613,-3.6154,-3.6533,-3.641,-3.6837,-3.6706,-3.6499,-3.6699,-3.6696,-3.7009,-3.7051,-3.7156,-3.7505,-3.7528,-3.7354,-3.7369,-3.7379,-3.7386,0,0,0,0,0,0,0,-3.551,-3.5573,-3.6179,-3.6116,-3.6144,-3.6195,-3.6253,-3.6492,-3.6762,-3.6517,-3.6532,-3.6592,-3.702,-3.7132,-3.717,-3.7536,-3.7353,-3.7375,-3.739,-3.7399,-3.8084,-3.8087,0,0,0,0,0,0,-3.5451,-3.5547,-3.6162,-3.6194,-3.5834,-3.6212,-3.6277,-3.6414,-3.676,-3.681,-3.6594,-3.6599,-3.7092,-3.7142,-3.719,-3.7452,-3.7379,-3.7402,-3.7415,-3.808,-3.8084,-3.8089,0,0,0,0,0,0,-3.5432,-3.5504,-3.614,-3.5875,-3.596,-3.6229,-3.6381,-3.6425,-3.6537,-3.6818,-3.6868,-3.6657,-3.7092,-3.7156,-3.7407,-3.7473,-3.7412,-3.7434,-3.8076,-3.8081,-3.8087,-3.7974,0,0,0,0,0,0,-3.5407,-3.5496,-3.5572,-3.5876,-3.5974,-3.6346,-3.6385,-3.6438,-3.6578,-3.659,-3.6891,-3.6939,-3.7095,-3.737,-3.7431,-3.7505,-3.7453,-3.8071,-3.8078,-3.8085,-3.7973,-3.7975,-3.7977,0,0,0,0,0,-3.5377,-3.5519,-3.5575,-3.5648,-3.6075,-3.6349,-3.6406,-3.6582,-3.6582,-3.6664,-3.6845,-3.6929,-3.7456,-3.7394,-3.7465,-3.7547,-3.8067,-3.8076,-3.8084,-3.7972,-3.7974,-3.7976,0,0,0,0,0,0,-3.5216,-3.5561,-3.5628,-3.5872,-3.608,-3.6382,-3.6489,-3.6578,-3.6791,-3.6793,-3.7004,-3.7071,-3.7306,-3.7453,-3.7377,-3.7763,-3.7768,-3.779,-3.7658,-3.7663,-3.7665,-3.7624,-3.7473,0,0,0,0,0,-3.5209,-3.5401,-3.5694,-3.5881,-3.5982,-3.6217,-3.6343,-3.6462,-3.6686,-3.6775,-3.6975,-3.719,-3.7406,-3.7543,-3.7756,-3.7996,-3.8067,-3.8088,-3.8089,-3.809,-3.8107,-3.825,-3.8264,-3.8116,-3.8116,-3.8116,0,0,-3.5196,-3.5409,-3.5517,-3.5854,-3.6029,-3.6226,-3.629,-3.6494,-3.6644,-3.6807,-3.7057,-3.7211,-3.7467,-3.7714,-3.7833,-3.7843,-3.8164,-3.81,-3.8098,-3.8116,-3.826,-3.8273,-3.8286,-3.8122,-3.8121,-3.812,0,0,-3.5273,-3.5452,-3.563,-3.5805,-3.607,-3.6227,-3.6269,-3.656,-3.6669,-3.6924,-3.7052,-3.7234,-3.7599,-3.7777,-3.7915,-3.8068,-3.8154,-3.8132,-3.8141,-3.8278,-3.8289,-3.8301,-3.8358,-3.8375,-3.8148,-3.8148,-3.8148,0,-3.5224,-3.5524,-3.571,-3.591,-3.6056,-3.6215,-3.6398,-3.656,-3.6881,-3.698,-3.6986,-3.7452,-3.7635,-3.7928,-3.7966,-3.8072,-3.813,-3.8097,-3.8272,-3.8286,-3.8299,-3.8356,-3.8377,-3.8143,-3.8144,-3.8144,-3.8145,0,-3.5452,-3.5659,-3.5771,-3.6078,-3.6238,-3.6428,-3.6646,-3.6786,-3.6892,-3.7049,-3.731,-3.7536,-3.7799,-3.7878,-3.7983,-3.819,-3.8188,-3.8231,-3.824,-3.8306,-3.8363,-3.8386,-3.8137,-3.8138,-3.814,-3.8141,0,0,-3.5438,-3.585,-3.5888,-3.6031,-3.6338,-3.6503,-3.6704,-3.6962,-3.708,-3.7298,-3.7473,-3.7781,-3.7825,-3.7982,-3.811,-3.823,-3.8341,-3.826,-3.8269,-3.8268,-3.8586,-3.8552,-3.8573,-3.8401,-3.8406,-3.841,-3.8566,0,-3.5557,-3.5919,-3.6096,-3.6383,-3.6579,-3.6735,-3.6911,-3.712,-3.7274,-3.7465,-3.7636,-3.7852,-3.7892,-3.7988,-3.8114,-3.8299,-3.8407,-3.8291,-3.8568,-3.8576,-3.8499,-3.8603,-3.8567,-3.8702,-3.8589,-3.8593,-3.8596,0,-3.5742,-3.5961,-3.6266,-3.6556,-3.6645,-3.6798,-3.7053,-3.7233,-3.7476,-3.758,-3.7758,-3.7883,-3.8104,-3.8098,-3.8408,-3.8325,-3.845,-3.8559,-3.8569,-3.8601,-3.8588,-3.8639,-3.875,-3.877,-3.8632,-3.8629,-3.8627,0,-3.5704,-3.6074,-3.6307,-3.6425,-3.6767,-3.6873,-3.7021,-3.7261,-3.7407,-3.7631,-3.7729,-3.7974,-3.8109,-3.8299,-3.8489,-3.8466,-3.8781,-3.879,-3.8876,-3.8871,-3.8934,-3.8927,-3.9066,-3.9013,-3.9013,-3.9012,-3.9012,0,-3.5818,-3.5999,-3.6295,-3.6437,-3.6647,-3.6851,-3.7055,-3.7215,-3.7429,-3.7608,-3.776,-3.7925,-3.8166,-3.8364,-3.8515,-3.875,-3.881,-3.8902,-3.894,-3.8889,-3.8877,-3.8973,-3.8968,-3.9018,-3.9017,-3.9016,-3.9015,0,-3.5808,-3.6013,-3.6277,-3.6582,-3.6663,-3.6804,-3.7067,-3.7214,-3.7377,-3.7603,-3.7668,-3.7925,-3.8166,-3.8375,-3.8692,-3.8795,-3.9038,-3.9083,-3.8955,-3.8975,-3.9049,-3.904,-3.9255,-3.9295,-3.9213,-3.9213,-3.9214,0,-3.5867,-3.6011,-3.6331,-3.6462,-3.6608,-3.6817,-3.6968,-3.7176,-3.7328,-3.7619,-3.7731,-3.7984,-3.8196,-3.8574,-3.8791,-3.9037,-3.909,-3.9149,-3.9128,-3.9073,-3.9093,-3.9082,-3.9099,-3.9148,-3.9148,-3.9148,-3.9148,0,-3.595,-3.6046,-3.6256,-3.6504,-3.668,-3.6885,-3.7095,-3.7195,-3.7444,-3.7607,-3.7855,-3.802,-3.8347,-3.8597,-3.8867,-3.9024,-3.9129,-3.9153,-3.9187,-3.9135,-3.9055,-3.9101,-3.8956,-3.9147,-3.9147,-3.9147,-3.9147,-3.9147,-3.5978,-3.6115,-3.6363,-3.6594,-3.6775,-3.6969,-3.7123,-3.7308,-3.7518,-3.7799,-3.7911,-3.8165,-3.8412,-3.8786,-3.8944,-3.9148,-3.9165,-3.9212,-3.9224,-3.9232,-3.9225,-3.9023,-3.9198,-3.9198,-3.9198,-3.9199,-3.9199,0,-3.607,-3.6239,-3.645,-3.674,-3.6923,-3.7007,-3.7246,-3.7394,-3.7615,-3.7836,-3.8043,-3.8331,-3.8576,-3.8814,-3.9072,-3.919,-3.9246,-3.9251,-3.9244,-3.928,-3.9194,-3.914,-3.9203,-3.9203,-3.9203,-3.9203,-3.9203,-3.9203,-3.6139,-3.6376,-3.6502,-3.6833,-3.7002,-3.7251,-3.7381,-3.7563,-3.7741,-3.8055,-3.8259,-3.8413,-3.8644,-3.8921,-3.9151,-3.9215,-3.9303,-3.9296,-3.9373,-3.9288,-3.9285,-3.9282,-3.9233,-3.9314,-3.9314,-3.9443,-3.9444,-3.9445]},{"header":{"parameterUnit":"m.s-1","parameterCategory":1,"la1":30.2991,"la2":30.254,"lo1":-89.0895,"lo2":-89.0444,"dy":0.0017,"dx":0.0017,"nx":28,"ny":28,"refTime":"2026-03-03T09:00:00:Z","depth":0,"parameterNumber":3,"parameterNumberName":"V-component_of_WINDS"},"data":[0,0,0,0,0,0,0,0,0,0,0,0,0,0,0,0,0,0,0,0,0,0,0,0,0,0,0,0,0,0,0,0,0,0,0,0,0,0,0,0,0,0,0,0,0,0,0,0,0,0,0,0,0,0,0,0,0,0,0.3716,0.3718,0,0.3854,0.3856,0.3857,0.3962,0.3963,0.3964,0.3965,0.411,0.4113,0.4115,0,0,0,0,0,0,0,0,0,0,0,0,0,0.3549,0.3551,0.3716,0.3718,0.3719,0.3854,0.3856,0.3858,0.3962,0.3963,0.3965,0.3966,0.4109,0.4112,0.4116,0,0,0,0,0,0,0,0,0,0,0,0,0,0.3647,0.3552,0.3716,0.3788,0.3796,0.3853,0.3856,0.3858,0.3962,0.3963,0.3965,0.3966,0.4108,0.4112,0.4116,0.4114,0,0,0.413,0.4132,0,0,0,0,0,0,0,0,0.3642,0.3654,0.3776,0.3783,0.3792,0.3892,0.385,0.3944,0.3962,0.3899,0.3965,0.3967,0.4036,0.4047,0.407,0.4121,0.4127,0.413,0.4133,0.4135,0.4136,0,0,0,0,0,0,0,0.3635,0.3648,0.3771,0.3777,0.3787,0.3815,0.3831,0.3868,0.3958,0.3904,0.3912,0.3927,0.4041,0.4065,0.4074,0.413,0.413,0.4134,0.4137,0.4138,0.419,0.4188,0,0,0,0,0,0,0.3616,0.3642,0.3766,0.3775,0.3719,0.3817,0.3834,0.3859,0.3958,0.3974,0.3926,0.3931,0.4057,0.4068,0.4079,0.4085,0.4135,0.4139,0.4141,0.4191,0.4189,0.4188,0,0,0,0,0,0,0.3612,0.3626,0.3761,0.3711,0.373,0.3818,0.3845,0.3861,0.3885,0.3974,0.3991,0.3933,0.4058,0.4073,0.4105,0.4091,0.4141,0.4145,0.4192,0.419,0.4189,0.4095,0,0,0,0,0,0,0.3607,0.3624,0.3623,0.371,0.3732,0.3782,0.3844,0.3862,0.3891,0.39,0.3985,0.4001,0.4061,0.4098,0.411,0.4098,0.4148,0.4194,0.4192,0.4189,0.41,0.409,0.4082,0,0,0,0,0,0.36,0.3591,0.3622,0.3637,0.3732,0.3781,0.3794,0.3862,0.389,0.389,0.3948,0.3998,0.4091,0.41,0.4114,0.4104,0.4195,0.4192,0.4189,0.4104,0.4092,0.4082,0,0,0,0,0,0,0.3501,0.3604,0.3639,0.3658,0.371,0.3799,0.3801,0.3848,0.3894,0.39,0.3984,0.4003,0.4026,0.4069,0.4077,0.4109,0.415,0.415,0.408,0.407,0.4061,0.405,0.4152,0,0,0,0,0,0.3481,0.3511,0.36,0.3608,0.3632,0.3712,0.3736,0.3784,0.3842,0.3865,0.3925,0.3981,0.4023,0.4049,0.4093,0.4107,0.4128,0.4107,0.4098,0.4091,0.4089,0.4102,0.4094,0.4178,0.4178,0.4179,0,0,0.3441,0.3501,0.3514,0.3589,0.3636,0.3666,0.373,0.3759,0.3784,0.387,0.3904,0.395,0.4018,0.4042,0.4055,0.4078,0.4071,0.4087,0.408,0.4083,0.4098,0.409,0.4083,0.4177,0.4177,0.4177,0,0,0.3382,0.343,0.3442,0.3487,0.3556,0.361,0.3613,0.3696,0.3729,0.3765,0.3831,0.3862,0.3932,0.3978,0.4011,0.3973,0.4021,0.3985,0.3938,0.395,0.3943,0.3937,0.3925,0.3919,0.3983,0.3983,0.3983,0,0.3323,0.337,0.3443,0.3469,0.3501,0.358,0.3594,0.3635,0.3715,0.3736,0.3761,0.3852,0.3903,0.3939,0.393,0.3954,0.3961,0.3975,0.3938,0.3933,0.3929,0.3918,0.3913,0.3978,0.3979,0.3979,0.398,0,0.3295,0.3327,0.3329,0.3403,0.3436,0.3456,0.3533,0.3558,0.3604,0.3655,0.3692,0.3757,0.3815,0.3828,0.3873,0.3872,0.3884,0.3922,0.3964,0.3915,0.3906,0.3902,0.3971,0.3973,0.3975,0.3976,0,0,0.3176,0.3291,0.3291,0.3326,0.3409,0.3437,0.3462,0.3518,0.3538,0.3592,0.3616,0.3675,0.3711,0.3748,0.38,0.381,0.3777,0.3847,0.385,0.3832,0.3781,0.3751,0.3745,0.381,0.3809,0.3809,0.3775,0,0.3131,0.3177,0.3244,0.3269,0.3301,0.3378,0.34,0.3455,0.3504,0.354,0.3597,0.3637,0.3681,0.3704,0.3718,0.3778,0.3768,0.3781,0.3834,0.3835,0.3814,0.374,0.3708,0.3673,0.3772,0.3772,0.3771,0,0.3083,0.3131,0.3159,0.3241,0.3257,0.3275,0.3334,0.3367,0.3431,0.3467,0.3509,0.3566,0.3598,0.3637,0.3684,0.3692,0.3718,0.3751,0.3752,0.3759,0.3799,0.3745,0.3664,0.3658,0.3766,0.3767,0.3767,0,0.2994,0.3066,0.3093,0.3121,0.3217,0.3228,0.3269,0.3335,0.3366,0.3418,0.3439,0.3494,0.3525,0.3568,0.3638,0.366,0.3678,0.3723,0.371,0.3708,0.371,0.3708,0.3631,0.3727,0.3727,0.3727,0.3727,0,0.2936,0.295,0.3054,0.307,0.3089,0.3167,0.3185,0.3233,0.3292,0.332,0.3392,0.3417,0.3509,0.3547,0.3603,0.3634,0.3648,0.3679,0.3693,0.3672,0.3668,0.369,0.3694,0.3726,0.3726,0.3726,0.3726,0,0.2838,0.2908,0.2942,0.3031,0.3054,0.3064,0.3141,0.3161,0.3216,0.3251,0.3264,0.3351,0.3399,0.3474,0.3544,0.3582,0.3604,0.3629,0.3581,0.359,0.3574,0.3574,0.3507,0.3503,0.3601,0.36,0.3599,0,0.2796,0.2808,0.2899,0.2922,0.296,0.2998,0.3029,0.3108,0.3139,0.3214,0.3226,0.3279,0.3326,0.3399,0.3469,0.3524,0.3551,0.3524,0.3559,0.3538,0.3551,0.3549,0.3551,0.3515,0.3513,0.3512,0.3511,0,0.2714,0.2748,0.279,0.2844,0.2879,0.2927,0.2977,0.2993,0.3084,0.3115,0.3164,0.32,0.3273,0.3326,0.3391,0.3436,0.3489,0.3499,0.35,0.3477,0.345,0.3465,0.3558,0.35,0.3501,0.3502,0.3503,0.3503,0.2643,0.2658,0.2724,0.2769,0.2816,0.2862,0.2885,0.2943,0.2985,0.3049,0.3094,0.3141,0.3208,0.3301,0.3344,0.3383,0.3406,0.3406,0.3406,0.3405,0.3397,0.3444,0.3395,0.3396,0.3396,0.3397,0.3397,0,0.2565,0.2611,0.2652,0.272,0.2756,0.2802,0.2862,0.2889,0.2929,0.2987,0.3031,0.3089,0.3142,0.3217,0.3275,0.3292,0.3318,0.3305,0.3304,0.3314,0.3373,0.3367,0.3283,0.3283,0.3283,0.3283,0.3283,0.3283,0.2528,0.2557,0.2599,0.2653,0.2701,0.2745,0.2776,0.282,0.2866,0.2927,0.297,0.3019,0.3084,0.3149,0.3199,0.3221,0.3239,0.3218,0.3246,0.3299,0.331,0.332,0.3315,0.3221,0.3221,0.3185,0.3184,0.3184]}]]